BD-28

Last updated on Sat Sep 17 2022 00:02:06 GMT+0000 (Coordinated Universal Time)

1 48867U 98067SN 22257.93525598 .11217198 12439-4 59507-3 0 9999 2 48867 51.6071 205.8121 0003505 241.6712 118.3962 16.42464612 70339

Satellite not in orbit